RH
7 6 5 5 5 8 19 26 28 31 30 32 36 36 35 36 40 42 36 33 33 34 33 32 32 33 33 31 30 30 29 28 26 23 21 21 19 19 17 14 13 12 12 11 10 9 8
7 7 6 6 5 5 7 15 30 36 35 34 36 39 41 43 43 40 34 33 32 30 27 27 29 30 30 30 30 26 22 21 22 22 22 23 22 21 18 18 17 16 15 13 12 12 12
9 8 7 6 5 5 7 15 32 40 42 43 43 43 45 45 37 35 33 28 28 29 29 28 24 22 18 22 20 19 19 18 18 18 19 19 19 19 19 19 17 16 13 14 13 14 15
7 7 7 6 6 11 25 37 42 46 50 50 50 49 48 42 39 35 33 27 28 33 30 28 26 23 19 17 16 16 16 18 18 18 19 20 19 18 18 18 17 17 18 16 15 16 14
7 6 6 9 16 28 32 40 49 57 57 51 51 52 45 43 42 37 31 28 30 31 30 28 25 23 20 20 19 18 16 16 16 16 16 15 14 16 17 18 18 17 15 17 18 21 21
13 10 11 16 27 43 57 63 63 63 55 50 52 52 49 47 44 39 33 29 29 28 27 26 22 24 22 21 19 20 19 17 15 15 15 15 14 14 14 14 14 15 16 17 16 21 21
43 18 20 37 54 68 70 69 62 56 52 50 55 54 50 46 40 35 35 34 32 26 26 25 24 24 22 21 19 18 16 16 15 14 12 11 10 10 10 10 10 11 12 13 14 19 21
54 49 43 56 75 73 70 65 62 56 57 58 56 50 49 45 40 37 37 36 36 32 26 23 23 23 20 18 16 14 14 13 12 10 8 7 6 6 6 7 9 9 10 11 9 15 27
51 48 51 65 68 68 69 65 65 67 61 57 55 53 50 45 40 38 36 36 32 30 26 22 20 18 18 15 14 13 11 10 8 6 5 4 4 4 5 11 23 30 39 64 73 47 43
73 55 57 65 67 71 74 72 72 67 62 59 56 54 47 42 38 33 34 32 30 26 24 22 20 16 15 14 12 11 8 7 4 2 2 2 2 3 3 4 6 8 12 18 29 69 98
89 71 62 70 72 77 78 75 70 67 67 64 56 47 39 34 32 33 32 30 26 26 24 20 17 16 15 13 11 6 4 2 1 1 2 4 2 3 4 5 8 5 6 6 5 6 10
92 87 66 76 70 74 80 72 72 66 65 61 49 40 39 42 39 35 32 30 29 25 21 18 18 15 13 8 4 2 2 2 2 2 3 4 5 13 24 12 18 32 34 14 8 8 15
98 95 75 82 73 85 81 74 66 64 63 55 46 40 44 43 40 36 33 32 28 24 22 19 15 12 8 4 2 2 2 2 3 3 7 10 20 88 100 75 79 100 68 73 100 100 75
96 97 92 86 79 85 83 74 68 63 57 49 45 46 46 44 40 37 35 30 26 23 20 14 11 5 2 2 2 2 3 3 6 13 17 34 24 100 58 80 56 36 59 100 100 100 100
89 90 98 88 82 89 87 70 71 66 58 52 50 52 49 44 40 38 32 28 25 22 17 12 7 3 2 2 3 3 4 7 20 36 39 57 46 44 74 50 46 40 86 100 86 80 66
96 98 97 96 92 90 79 73 72 61 58 58 55 50 48 44 40 34 31 28 24 19 13 8 3 2 2 3 4 4 5 13 25 51 48 78 56 57 65 64 81 100 88 87 100 96 100
100 92 93 95 86 84 76 76 67 64 63 58 51 47 46 42 38 34 31 27 21 14 11 4 2 2 3 4 4 4 6 9 22 43 67 72 65 63 87 100 82 83 100 100 88 81 97
99 93 96 94 86 79 75 75 72 67 63 56 51 52 48 46 38 35 31 26 18 12 7 2 2 3 4 4 5 5 6 8 12 27 64 67 74 68 90 98 79 87 100 95 95 84 80
97 94 95 84 86 82 80 77 71 68 63 58 58 55 52 45 37 36 30 21 14 9 3 2 3 4 5 5 6 6 6 8 12 19 52 56 67 87 100 100 93 99 100 100 100 98 82
97 96 93 87 84 86 82 78 75 70 65 65 61 56 54 42 37 32 26 17 11 5 3 3 4 5 6 7 8 7 6 8 12 16 30 72 97 100 100 99 98 85 87 100 100 96 98
94 97 96 86 87 88 86 78 80 75 74 72 64 59 54 41 37 29 20 13 7 3 3 4 5 6 7 8 8 8 8 8 15 27 67 100 100 100 100 100 100 100 100 100 100 99 91
95 96 96 91 94 93 89 88 81 81 82 75 70 63 45 36 34 24 15 9 5 3 3 5 6 7 9 10 10 9 9 8 11 22 57 98 96 100 95 96 85 96 92 100 100 99 98
94 96 97 96 96 92 98 90 85 88 83 74 71 59 38 36 29 19 13 7 4 3 4 6 6 7 11 12 12 12 12 11 10 15 29 62 79 100 72 68 63 66 82 80 71 79 73
96 97 93 95 97 100 95 89 91 87 83 80 68 56 33 34 24 15 9 6 3 4 4 6 7 9 13 15 15 15 15 14 13 12 17 31 58 72 77 71 67 65 77 78 76 83 88
97 96 92 96 99 99 94 91 88 88 90 85 67 46 30 28 18 13 9 5 3 4 5 6 9 13 16 18 17 18 18 18 18 18 16 16 18 34 60 77 78 72 68 76 78 86 76
95 95 95 98 97 92 93 89 91 91 87 78 60 32 30 22 16 11 6 3 3 4 5 8 11 14 17 19 21 23 25 25 26 24 21 20 20 18 17 18 23 36 52 61 72 82 78
93 96 98 96 96 95 92 88 92 89 86 75 49 26 28 17 14 8 5 4 4 5 6 9 11 16 19 22 25 26 27 29 31 31 30 31 30 28 28 26 22 20 21 20 22 26 35
95 98 97 96 95 94 91 94 93 92 86 67 35 22 27 15 14 7 5 4 4 5 6 9 12 16 19 21 23 26 28 30 34 34 37 38 39 40 38 36 34 34 33 31 29 27 23
97 97 97 96 97 98 97 98 94 93 87 63 26 28 18 16 12 8 4 4 5 5 6 9 11 14 18 22 24 28 32 32 36 37 40 43 45 50 52 52 51 50 47 44 41 38 36
Wind_Speed
19 17 17 17 17 18 20 21 23 23 24 24 26 26 27 28 26 27 28 28 25 25 25 26 26 26 27 28 26 28 31 33 35 36 36 38 41 44 45 46 47 50 45 46 46 46 46
21 21 21 20 20 20 21 23 24 24 25 26 27 27 28 29 29 29 29 30 30 29 29 29 29 29 31 30 29 30 33 36 39 40 43 45 48 50 53 53 55 56 57 54 55 54 53
21 21 22 21 22 23 22 22 23 26 26 27 27 27 28 30 30 29 30 30 30 30 30 29 30 31 33 33 34 36 40 43 44 47 48 50 52 54 58 60 61 61 62 62 59 59 58
21 21 22 22 22 21 21 22 24 25 26 27 28 30 30 30 29 32 32 33 31 29 30 31 33 34 36 37 39 43 46 49 52 54 56 59 64 66 68 66 67 69 70 69 67 66 66
20 21 21 21 20 21 23 24 25 26 26 27 29 30 30 30 31 33 33 33 31 32 33 35 37 39 41 43 46 49 52 56 60 64 67 68 69 68 69 68 72 72 73 73 71 72 72
20 22 21 21 21 21 22 24 25 26 28 29 30 29 31 32 32 33 33 34 35 36 37 40 43 46 48 50 52 56 59 63 66 67 69 72 76 78 79 80 82 78 78 77 77 71 75
21 22 21 20 21 22 23 24 26 28 30 32 32 32 32 32 31 31 33 35 37 37 39 42 46 49 51 55 60 59 64 69 72 76 77 79 81 82 82 84 85 84 83 82 82 81 82
20 21 20 21 21 22 24 26 26 28 31 32 32 33 33 33 33 34 36 39 41 44 46 49 50 56 60 60 65 67 72 76 78 80 82 84 84 80 84 82 84 84 85 85 85 82 82
22 23 22 23 23 24 25 26 27 28 30 31 31 34 35 35 37 40 42 43 46 50 53 54 60 60 64 67 71 76 78 80 83 84 85 82 78 82 83 80 79 77 79 77 79 82 79
26 25 23 23 23 24 25 27 28 29 30 31 34 36 37 39 40 42 43 47 50 55 58 63 61 62 66 71 76 81 84 85 86 83 80 72 74 72 73 73 77 80 74 78 75 67 66
27 26 24 23 24 24 26 28 30 31 32 34 37 38 38 40 43 45 47 51 56 59 63 61 64 69 73 78 82 82 83 81 75 69 66 64 65 63 60 60 59 65 63 64 64 65 66
29 27 24 24 25 25 26 28 31 33 33 34 35 37 41 43 43 46 51 56 59 61 63 67 71 73 79 79 79 76 69 68 61 58 54 54 50 46 46 44 39 41 42 45 49 49 55
29 29 27 24 25 25 27 30 32 34 34 36 39 40 41 44 48 52 56 59 62 65 67 71 73 77 76 75 72 67 62 59 57 53 45 38 31 22 28 29 24 24 29 26 21 24 34
28 32 31 25 25 27 27 32 33 34 37 40 41 43 45 49 53 56 59 62 64 66 68 70 72 71 67 70 63 58 57 53 49 39 36 31 22 17 21 22 23 19 19 18 18 14 25
26 27 29 28 28 28 30 33 35 36 41 43 44 46 50 54 55 58 60 63 67 69 70 72 73 66 63 59 57 55 52 46 37 32 30 27 19 15 19 20 22 18 14 19 22 19 22
25 25 24 22 25 28 31 33 36 38 43 44 47 49 51 53 55 57 61 66 67 69 70 70 65 62 57 54 52 49 47 42 34 28 25 24 30 19 17 19 13 16 19 15 16 14 16
20 23 24 25 27 28 31 34 36 41 44 46 48 51 52 54 57 60 64 66 68 68 70 66 59 55 52 50 49 46 42 41 31 28 25 28 23 16 18 15 14 15 15 17 20 20 23
22 25 26 27 28 29 32 34 39 42 44 47 50 52 54 57 59 62 66 69 69 67 68 59 55 50 48 47 45 43 39 36 32 31 22 22 21 17 14 15 17 16 17 17 18 21 23
23 26 27 28 28 30 34 36 40 42 45 48 52 54 56 58 60 65 67 67 66 65 61 55 50 47 46 45 43 39 37 34 29 28 21 20 15 16 14 19 16 18 17 19 18 17 20
23 25 25 27 28 30 34 39 41 44 48 52 55 56 57 58 60 64 65 63 63 60 54 51 47 44 43 42 38 37 34 30 27 24 20 16 16 15 17 16 16 16 18 18 15 15 19
25 26 26 27 29 31 37 41 43 47 50 54 55 56 57 59 61 62 62 60 58 53 51 47 45 43 41 39 37 35 33 28 25 21 16 13 13 14 14 16 16 18 18 17 18 18 20
26 27 27 28 31 35 40 43 46 49 52 55 55 55 55 58 60 60 58 56 55 50 48 45 43 41 40 39 38 34 32 28 22 20 18 17 17 17 18 23 21 19 19 19 19 17 19
27 27 29 31 35 40 41 44 47 51 53 55 54 53 54 58 58 57 54 52 51 48 46 43 42 40 38 38 37 34 30 27 24 20 19 21 24 25 26 27 28 26 25 24 25 24 23
26 27 30 33 38 40 42 46 48 51 53 54 51 53 54 56 56 53 51 51 49 47 45 42 40 39 37 35 36 33 30 26 23 21 19 20 25 29 32 31 30 29 26 24 24 22 23
27 30 33 37 38 40 45 46 49 51 53 52 51 52 53 54 53 52 51 49 47 45 43 40 38 36 35 35 36 35 30 25 24 22 22 20 20 22 25 26 28 26 26 26 26 26 26
27 30 33 36 38 41 44 47 51 52 54 51 50 51 53 53 51 50 48 47 45 43 41 37 36 35 34 34 36 34 29 25 25 24 23 20 20 17 18 21 24 25 28 29 30 29 29
26 30 34 35 39 42 46 49 52 53 52 49 50 49 51 50 48 47 44 43 42 40 39 38 36 35 33 34 33 31 28 26 25 23 22 19 18 19 19 18 18 20 23 25 24 28 29
29 31 33 37 41 44 48 50 52 53 50 48 48 47 49 47 46 44 42 41 39 38 37 36 35 33 33 32 33 31 29 27 27 27 27 25 24 21 20 18 16 17 19 19 19 20 23
30 31 35 39 43 47 50 51 52 51 48 47 46 46 46 45 44 41 40 39 37 37 36 34 33 33 32 32 33 31 29 29 30 30 30 28 28 28 27 24 23 22 21 21 20 20 21
Wind_Direction
267 272 276 283 286 289 291 295 300 306 308 313 317 321 324 325 324 323 322 317 315 312 311 309 304 298 295 292 297 293 293 292 295 294 292 286 284 282 280 275 274 279 279 274 272 268 268
264 270 276 282 288 293 294 295 299 303 307 309 311 317 322 322 321 321 321 319 316 313 312 307 305 304 299 297 295 295 297 296 295 293 292 290 286 283 282 281 279 279 277 274 272 273 272
270 270 276 283 291 294 294 294 298 304 308 308 311 315 319 318 320 321 320 321 319 315 313 310 308 306 302 301 298 297 299 298 296 291 289 288 287 283 283 279 277 276 275 273 273 271 269
282 280 279 282 288 291 295 298 301 304 308 311 314 316 316 314 316 319 317 321 319 316 311 307 304 303 300 296 293 295 296 296 297 295 292 291 290 288 285 279 277 276 273 272 269 267 269
293 289 287 287 290 293 298 301 303 307 310 314 314 314 312 314 318 316 318 320 319 316 311 307 304 302 300 300 299 296 294 295 294 294 293 291 288 287 283 280 276 272 272 272 270 267 262
298 292 290 293 295 299 302 304 306 309 312 313 311 313 312 315 316 315 317 319 316 314 311 310 307 304 303 302 300 298 297 295 297 295 293 290 288 286 283 279 279 277 272 269 267 261 261
301 299 295 295 297 300 303 305 307 310 312 311 312 313 314 316 316 317 316 316 313 313 311 307 304 302 302 299 297 298 297 299 298 297 297 295 291 286 282 278 275 271 267 266 266 263 262
293 293 294 295 298 303 307 309 311 310 309 310 313 313 315 314 316 315 315 315 316 317 314 312 309 308 308 307 307 304 305 304 304 301 298 294 288 279 276 272 269 268 267 263 259 254 253
290 290 290 294 300 306 308 310 308 310 311 313 314 314 315 316 318 316 317 318 317 319 319 316 314 313 312 313 310 308 307 307 305 302 296 288 280 271 270 265 261 258 258 256 256 255 251
286 288 292 296 302 308 309 309 309 310 312 313 315 317 318 319 317 318 318 320 321 321 318 317 317 318 318 318 315 313 312 311 307 302 297 287 279 275 271 269 266 264 262 261 261 259 258
285 285 291 298 307 310 312 311 310 310 309 312 319 320 320 322 321 322 324 324 324 320 320 322 323 323 324 322 319 318 317 313 305 301 296 291 287 284 281 278 276 272 268 268 265 260 259
281 280 287 298 305 309 311 314 317 316 313 315 319 321 322 324 325 326 326 324 322 323 327 328 328 329 327 325 323 321 314 309 307 304 300 296 295 292 287 285 283 282 275 271 269 264 256
284 279 281 290 300 306 310 321 325 323 321 319 320 325 327 327 327 327 327 327 328 330 331 331 330 330 327 328 324 319 318 316 315 313 309 302 298 298 286 288 285 277 293 296 280 261 269
283 283 275 283 295 302 308 320 326 323 322 323 325 328 328 328 328 329 330 330 330 333 333 332 333 329 329 329 325 324 324 322 321 318 314 312 310 282 293 295 295 285 284 279 287 233 226
285 289 293 283 287 298 312 317 322 322 322 324 326 328 329 328 329 331 332 332 336 334 334 335 333 334 334 330 329 330 328 328 325 323 321 318 311 305 302 299 296 296 273 264 277 275 244
293 293 291 290 292 302 310 315 321 323 325 325 326 328 329 330 330 333 333 337 335 335 336 337 335 338 335 333 332 332 333 331 322 319 329 317 309 313 309 312 302 294 289 276 251 276 255
291 281 281 287 299 304 310 317 323 323 325 327 328 329 331 332 334 335 338 337 336 338 339 337 340 340 337 335 334 336 334 327 320 310 317 316 307 316 322 303 284 279 270 278 272 273 272
279 283 283 291 299 306 312 318 321 322 326 327 327 331 332 333 333 337 338 338 339 339 338 340 342 341 337 335 338 338 332 324 322 311 310 311 310 318 321 317 302 295 282 278 282 270 269
277 284 287 294 300 306 311 317 320 321 324 325 328 331 332 333 336 339 338 339 338 340 340 342 343 341 338 337 339 340 332 326 319 312 306 306 308 315 308 304 297 300 306 299 296 286 284
275 285 291 297 303 306 310 316 318 322 324 326 330 331 332 335 337 338 338 338 339 341 341 342 341 340 340 340 340 339 334 330 317 311 305 306 302 306 300 301 295 298 308 310 303 288 303
277 285 293 301 302 306 314 317 318 321 324 328 330 330 334 336 337 337 337 339 341 343 341 341 341 340 338 341 343 338 338 334 319 315 300 292 294 298 306 309 300 303 297 292 303 310 314
281 282 290 297 302 310 314 316 320 321 323 327 328 330 334 334 336 336 338 342 342 342 341 341 341 340 341 344 345 343 339 338 329 309 291 282 276 277 282 298 300 296 300 296 300 308 316
281 281 288 297 302 308 312 317 320 322 324 326 327 331 333 334 335 337 338 342 341 342 342 343 342 342 344 345 346 343 339 339 337 322 299 287 288 277 281 289 293 294 299 292 293 298 303
279 286 294 298 304 309 314 318 319 322 323 326 328 332 331 333 335 336 339 341 342 342 344 345 344 345 346 345 348 346 341 339 338 334 321 300 288 288 290 290 291 291 293 292 291 293 291
282 288 294 301 304 309 314 317 319 320 324 326 329 329 329 333 335 336 340 342 343 344 347 348 349 348 348 347 348 347 343 340 338 339 340 327 309 297 292 288 287 289 289 289 289 289 288
286 290 295 300 307 311 313 317 319 321 325 325 326 328 330 333 336 338 340 343 343 346 348 352 353 352 348 348 350 350 347 347 347 343 342 339 339 333 318 305 298 295 289 286 285 283 282
287 292 296 304 310 312 315 317 319 322 323 323 325 327 332 334 336 339 341 342 344 347 350 354 354 353 350 350 352 349 347 349 351 347 350 347 344 336 335 327 317 304 300 300 296 292 285
284 292 299 308 312 313 314 316 318 321 320 322 324 328 332 333 338 338 339 341 343 346 350 352 354 351 350 349 350 351 350 352 352 351 348 347 346 345 341 336 328 324 320 316 315 307 301
287 295 304 309 311 314 314 315 318 319 319 320 324 329 331 335 336 337 338 340 343 344 349 351 351 350 349 348 351 350 351 351 351 350 348 346 347 345 344 340 335 331 326 323 320 316 312